Time,TemperatureF,DewpointF,PressureIn,WindDirection,WindDirectionDegrees,WindSpeedMPH,WindSpeedGustMPH,Humidity,HourlyPrecipIn,Conditions,Clouds,dailyrainin,SoftwareType,DateUTC
2013-01-08 00:00:00,33.0,-99.9,-100.00,SSW,202,4.0,5.0,-999,0.00,,,0.00,,2013-01-08 06:00:00,
2013-01-08 00:33:00,33.0,-99.9,-100.00,SSW,202,4.0,5.0,-999,0.00,,,0.00,,2013-01-08 06:33:00,
2013-01-08 00:43:00,33.0,-99.9,-100.00,SSW,202,4.0,5.0,-999,0.00,,,0.00,,2013-01-08 06:43:00,
2013-01-08 00:53:00,33.0,-99.9,-100.00,SSW,202,4.0,5.0,-999,0.00,,,0.00,,2013-01-08 06:53:00,
2013-01-08 01:00:00,33.0,-99.9,-100.00,SSE,163,5.0,8.0,-999,0.00,,,0.00,,2013-01-08 07:00:00,
2013-01-08 01:42:00,33.0,-99.9,-100.00,SSE,163,5.0,8.0,-999,0.00,,,0.00,,2013-01-08 07:42:00,
2013-01-08 01:53:00,33.0,-99.9,-100.00,SSE,163,5.0,8.0,-999,0.00,,,0.00,,2013-01-08 07:53:00,
2013-01-08 02:00:00,33.0,-99.9,-100.00,SSW,199,4.0,8.0,-999,0.00,,,0.00,,2013-01-08 08:00:00,
2013-01-08 02:42:00,33.0,-99.9,-100.00,SSW,199,4.0,8.0,-999,0.00,,,0.00,,2013-01-08 08:42:00,
2013-01-08 02:53:00,33.0,-99.9,-100.00,SSW,199,4.0,8.0,-999,0.00,,,0.00,,2013-01-08 08:53:00,
2013-01-08 03:00:00,33.0,-99.9,-100.00,SSW,204,6.0,9.0,-999,0.00,,,0.00,,2013-01-08 09:00:00,
2013-01-08 03:33:00,33.0,-99.9,-100.00,SSW,204,6.0,9.0,-999,0.00,,,0.00,,2013-01-08 09:33:00,
2013-01-08 03:43:00,33.0,-99.9,-100.00,SSW,204,6.0,9.0,-999,0.00,,,0.00,,2013-01-08 09:43:00,
2013-01-08 03:53:00,33.0,-99.9,-100.00,SSW,204,6.0,9.0,-999,0.00,,,0.00,,2013-01-08 09:53:00,
2013-01-08 04:00:00,33.0,-99.9,-100.00,South,172,5.0,9.0,-999,0.00,,,0.00,,2013-01-08 10:00:00,
2013-01-08 04:43:00,33.0,-99.9,-100.00,South,172,5.0,9.0,-999,0.00,,,0.00,,2013-01-08 10:43:00,
2013-01-08 04:53:00,33.0,-99.9,-100.00,South,172,5.0,9.0,-999,0.00,,,0.00,,2013-01-08 10:53:00,
2013-01-08 05:00:00,32.0,-99.9,-100.00,South,170,4.0,5.0,-999,0.00,,,0.00,,2013-01-08 11:00:00,
2013-01-08 05:33:00,32.0,-99.9,-100.00,South,170,4.0,5.0,-999,0.00,,,0.00,,2013-01-08 11:33:00,
2013-01-08 05:43:00,32.0,-99.9,-100.00,South,170,4.0,5.0,-999,0.00,,,0.00,,2013-01-08 11:43:00,
2013-01-08 05:53:00,32.0,-99.9,-100.00,South,170,4.0,5.0,-999,0.00,,,0.00,,2013-01-08 11:53:00,
2013-01-08 06:00:00,33.0,-99.9,-100.00,South,185,4.0,10.0,-999,0.00,,,0.00,,2013-01-08 12:00:00,
2013-01-08 06:33:00,33.0,-99.9,-100.00,South,185,4.0,10.0,-999,0.00,,,0.00,,2013-01-08 12:33:00,
2013-01-08 06:43:00,33.0,-99.9,-100.00,South,185,4.0,10.0,-999,0.00,,,0.00,,2013-01-08 12:43:00,
2013-01-08 06:53:00,33.0,-99.9,-100.00,South,185,4.0,10.0,-999,0.00,,,0.00,,2013-01-08 12:53:00,
2013-01-08 07:00:00,32.0,-99.9,-100.00,South,171,6.0,9.0,-999,0.00,,,0.00,,2013-01-08 13:00:00,
2013-01-08 07:43:00,32.0,-99.9,-100.00,South,171,6.0,9.0,-999,0.00,,,0.00,,2013-01-08 13:43:00,
2013-01-08 07:53:00,32.0,-99.9,-100.00,South,171,6.0,9.0,-999,0.00,,,0.00,,2013-01-08 13:53:00,
2013-01-08 08:00:00,32.0,-99.9,-100.00,South,169,8.0,11.0,-999,0.00,,,0.00,,2013-01-08 14:00:00,
2013-01-08 08:44:00,32.0,-99.9,-100.00,South,169,8.0,11.0,-999,0.00,,,0.00,,2013-01-08 14:44:00,
2013-01-08 08:53:00,32.0,-99.9,-100.00,South,169,8.0,11.0,-999,0.00,,,0.00,,2013-01-08 14:53:00,
2013-01-08 09:00:00,34.0,-99.9,-100.00,South,172,8.0,11.0,-999,0.00,,,0.00,,2013-01-08 15:00:00,
2013-01-08 09:33:00,34.0,-99.9,-100.00,South,172,8.0,11.0,-999,0.00,,,0.00,,2013-01-08 15:33:00,
2013-01-08 09:43:00,34.0,-99.9,-100.00,South,172,8.0,11.0,-999,0.00,,,0.00,,2013-01-08 15:43:00,
2013-01-08 09:53:00,34.0,-99.9,-100.00,South,172,8.0,11.0,-999,0.00,,,0.00,,2013-01-08 15:53:00,
2013-01-08 10:00:00,36.0,-99.9,-100.00,South,171,7.0,11.0,-999,0.00,,,0.00,,2013-01-08 16:00:00,
2013-01-08 10:43:00,36.0,-99.9,-100.00,South,171,7.0,11.0,-999,0.00,,,0.00,,2013-01-08 16:43:00,
2013-01-08 10:53:00,36.0,-99.9,-100.00,South,171,7.0,11.0,-999,0.00,,,0.00,,2013-01-08 16:53:00,
2013-01-08 11:00:00,41.0,-99.9,-100.00,SSW,203,9.0,23.0,-999,0.00,,,0.00,,2013-01-08 17:00:00,
2013-01-08 11:43:00,41.0,-99.9,-100.00,SSW,203,9.0,23.0,-999,0.00,,,0.00,,2013-01-08 17:43:00,
2013-01-08 11:54:00,41.0,-99.9,-100.00,SSW,203,9.0,23.0,-999,0.00,,,0.00,,2013-01-08 17:54:00,
2013-01-08 12:00:00,42.0,-99.9,-100.00,SSW,199,11.0,18.0,-999,0.00,,,0.00,,2013-01-08 18:00:00,
2013-01-08 12:43:00,42.0,-99.9,-100.00,SSW,199,11.0,18.0,-999,0.00,,,0.00,,2013-01-08 18:43:00,
2013-01-08 12:53:00,42.0,-99.9,-100.00,SSW,199,11.0,18.0,-999,0.00,,,0.00,,2013-01-08 18:53:00,
2013-01-08 13:00:00,47.0,-99.9,-100.00,South,190,10.0,15.0,-999,0.00,,,0.00,,2013-01-08 19:00:00,
2013-01-08 13:43:00,47.0,-99.9,-100.00,South,190,10.0,15.0,-999,0.00,,,0.00,,2013-01-08 19:43:00,
2013-01-08 13:53:00,47.0,-99.9,-100.00,South,190,10.0,15.0,-999,0.00,,,0.00,,2013-01-08 19:53:00,
2013-01-08 14:00:00,49.0,-99.9,-100.00,South,189,11.0,23.0,-999,0.00,,,0.00,,2013-01-08 20:00:00,
2013-01-08 14:43:00,49.0,-99.9,-100.00,South,189,11.0,23.0,-999,0.00,,,0.00,,2013-01-08 20:43:00,
2013-01-08 14:54:00,49.0,-99.9,-100.00,South,189,11.0,23.0,-999,0.00,,,0.00,,2013-01-08 20:54:00,
2013-01-08 15:00:00,48.0,-99.9,-100.00,South,175,12.0,21.0,-999,0.00,,,0.00,,2013-01-08 21:00:00,
2013-01-08 15:43:00,48.0,-99.9,-100.00,South,175,12.0,21.0,-999,0.00,,,0.00,,2013-01-08 21:43:00,
2013-01-08 15:53:00,48.0,-99.9,-100.00,South,175,12.0,21.0,-999,0.00,,,0.00,,2013-01-08 21:53:00,
2013-01-08 16:00:00,47.0,-99.9,-100.00,South,184,11.0,17.0,-999,0.00,,,0.00,,2013-01-08 22:00:00,
2013-01-08 16:43:00,47.0,-99.9,-100.00,South,184,11.0,17.0,-999,0.00,,,0.00,,2013-01-08 22:43:00,
2013-01-08 16:53:00,47.0,-99.9,-100.00,South,184,11.0,17.0,-999,0.00,,,0.00,,2013-01-08 22:53:00,
2013-01-08 17:00:00,45.0,-99.9,-100.00,SW,214,10.0,19.0,-999,0.00,,,0.00,,2013-01-08 23:00:00,
2013-01-08 17:43:00,45.0,-99.9,-100.00,SW,214,10.0,19.0,-999,0.00,,,0.00,,2013-01-08 23:43:00,
2013-01-08 17:53:00,45.0,-99.9,-100.00,SW,214,10.0,19.0,-999,0.00,,,0.00,,2013-01-08 23:53:00,
2013-01-08 18:00:00,43.0,-99.9,-100.00,SW,214,5.0,8.0,-999,0.00,,,0.00,,2013-01-09 00:00:00,
2013-01-08 18:43:00,43.0,-99.9,-100.00,SW,214,5.0,8.0,-999,0.00,,,0.00,,2013-01-09 00:43:00,
2013-01-08 18:53:00,43.0,-99.9,-100.00,SW,214,5.0,8.0,-999,0.00,,,0.00,,2013-01-09 00:53:00,
2013-01-08 19:00:00,43.0,-99.9,-100.00,SW,214,9.0,17.0,-999,0.00,,,0.00,,2013-01-09 01:00:00,
2013-01-08 19:43:00,43.0,-99.9,-100.00,SW,214,9.0,17.0,-999,0.00,,,0.00,,2013-01-09 01:43:00,
2013-01-08 19:53:00,43.0,-99.9,-100.00,SW,214,9.0,17.0,-999,0.00,,,0.00,,2013-01-09 01:53:00,
2013-01-08 20:00:00,43.0,-99.9,-100.00,SW,232,7.0,14.0,-999,0.00,,,0.00,,2013-01-09 02:00:00,
2013-01-08 20:43:00,43.0,-99.9,-100.00,SW,232,7.0,14.0,-999,0.00,,,0.00,,2013-01-09 02:43:00,
2013-01-08 20:53:00,43.0,-99.9,-100.00,SW,232,7.0,14.0,-999,0.00,,,0.00,,2013-01-09 02:53:00,
2013-01-08 21:00:00,41.0,-99.9,-100.00,WSW,248,5.0,13.0,-999,0.00,,,0.00,,2013-01-09 03:00:00,
2013-01-08 21:43:00,41.0,-99.9,-100.00,WSW,248,5.0,13.0,-999,0.00,,,0.00,,2013-01-09 03:43:00,
2013-01-08 21:53:00,41.0,-99.9,-100.00,WSW,248,5.0,13.0,-999,0.00,,,0.00,,2013-01-09 03:53:00,
2013-01-08 22:00:00,40.0,-99.9,-100.00,WSW,257,7.0,11.0,-999,0.00,,,0.00,,2013-01-09 04:00:00,
2013-01-08 22:33:00,40.0,-99.9,-100.00,WSW,257,7.0,11.0,-999,0.00,,,0.00,,2013-01-09 04:33:00,
2013-01-08 22:43:00,40.0,-99.9,-100.00,WSW,257,7.0,11.0,-999,0.00,,,0.00,,2013-01-09 04:43:00,
2013-01-08 22:53:00,40.0,-99.9,-100.00,WSW,257,7.0,11.0,-999,0.00,,,0.00,,2013-01-09 04:53:00,
2013-01-08 23:00:00,39.0,-99.9,-100.00,West,277,7.0,13.0,-999,0.00,,,0.00,,2013-01-09 05:00:00,
2013-01-08 23:43:00,39.0,-99.9,-100.00,West,277,7.0,13.0,-999,0.00,,,0.00,,2013-01-09 05:43:00,
2013-01-08 23:53:00,39.0,-99.9,-100.00,West,277,7.0,13.0,-999,0.00,,,0.00,,2013-01-09 05:53:00,